Change the Weather History Date:

Sunday, June 8, 2014

  Actual Average Record
Temperature  
Mean Temperature 70 °F -  
Max Temperature 83 °F 81 °F 96 °F (1999)
Min Temperature 59 °F 60 °F 44 °F (1997)
Cooling Degree Days 6    
Growing Degree Days 20 (Base 50)    
Moisture  
Dew Point 60 °F    
Average Humidity 67    
Maximum Humidity 100    
Minimum Humidity 36    
Precipitation  
Precipitation 0.00 in - - ()
Sea Level Pressure  
Sea Level Pressure 29.92 in    
Wind  
Wind Speed 6 mph (SSE)    
Max Wind Speed 15 mph    
Max Gust Speed 22 mph    
Visibility 10 miles    
Events Rain    
Averages and records for this station are not official NWS values.
T = Trace of Precipitation, MM = Missing Value Source: NWS Daily Summary

Daily Weather History Graph

Daily Weather History Graph

Search for Another Location

Airport or City:

Trip Planner

Search our weather history database for the weather conditions in past years. The results will help you decide how hot, cold, wet, or windy it might be!

Date:

Astronomy

Jun. 08, 2014 Rise Set
Actual Time 5:35 AM EDT 8:26 PM EDT
Civil Twilight 5:03 AM EDT 8:58 PM EDT
Nautical Twilight 4:23 AM EDT 9:38 PM EDT
Astronomical Twilight 3:37 AM EDT 10:24 PM EDT
Moon 3:44 PM EDT (6/8) 2:25 AM EDT (6/8)
Length of Visible Light 15h 54m
Length of Day
14h 50m
Waxing Gibbous, 77% of the Moon is Illuminated
Jun 8
Waxing Gibbous
Jun 13
Full
Jun 19
Last Quarter
Jun 27
New
Jul 5
First Quarter

Hourly Weather History & Observations

Time (EDT) Temp. Heat Index Dew Point Humidity Pressure Visibility Wind Dir Wind Speed Gust Speed Precip Events Conditions
12:58 AM 64.0 °F - 61.2 °F 90% 29.95 in 10.0 mi South 5.8 mph - N/A   Clear
1:58 AM 62.6 °F - 62.2 °F 99% 29.95 in 10.0 mi SSW 3.5 mph - N/A   Clear
2:58 AM 62.1 °F - 61.7 °F 99% 29.95 in 10.0 mi SSW 3.5 mph - N/A   Clear
3:58 AM 62.2 °F - 62.1 °F 99% 29.94 in 10.0 mi South 3.5 mph - N/A   Clear
4:58 AM 59.5 °F - 59.5 °F 100% 29.93 in 10.0 mi SW 1.2 mph - N/A   Clear
5:58 AM 59.7 °F - 59.7 °F 100% 29.94 in 10.0 mi Calm Calm - N/A   Clear
6:58 AM 63.5 °F - 63.1 °F 99% 29.96 in 10.0 mi SW 3.5 mph - N/A   Partly Cloudy
7:58 AM 65.8 °F - 65.5 °F 99% 29.97 in 10.0 mi Calm Calm - N/A   Clear
8:58 AM 74.3 °F - 63.3 °F 68% 29.97 in 10.0 mi WSW 10.4 mph - N/A   Clear
9:58 AM 78.3 °F - 61.5 °F 56% 29.97 in 10.0 mi SSW 8.1 mph - N/A   Clear
10:58 AM 80.4 °F 80.6 °F 56.8 °F 44% 29.96 in 10.0 mi SSE 8.1 mph - N/A   Partly Cloudy
11:58 AM 81.5 °F 81.1 °F 55.8 °F 41% 29.96 in 10.0 mi Variable 2.3 mph - N/A   Clear
12:34 PM 82.4 °F 82.0 °F 57.2 °F 42% 29.94 in 10.0 mi East 10.4 mph - N/A Rain Light Rain
12:45 PM 82.4 °F 82.0 °F 57.2 °F 42% 29.94 in 10.0 mi ESE 8.1 mph - N/A   Scattered Clouds
12:56 PM 82.4 °F 81.7 °F 55.4 °F 39% 29.93 in 10.0 mi East 9.2 mph - N/A Rain Light Rain
12:58 PM 82.4 °F 81.7 °F 55.4 °F 39% 29.94 in 10.0 mi ESE 10.4 mph - 0.00 in Rain Light Rain
1:58 PM 82.8 °F - 52.9 °F 36% 29.93 in 10.0 mi ESE 11.5 mph 19.6 mph 0.00 in   Mostly Cloudy
2:58 PM 81.0 °F 81.2 °F 58.3 °F 46% 29.91 in 10.0 mi ESE 13.8 mph 21.9 mph N/A   Mostly Cloudy
3:58 PM 77.7 °F - 58.1 °F 51% 29.90 in 10.0 mi ESE 8.1 mph - N/A   Mostly Cloudy
4:58 PM 80.2 °F 81.2 °F 61.2 °F 52% 29.88 in 10.0 mi SE 15.0 mph 20.7 mph N/A   Clear
5:58 PM 76.8 °F - 63.3 °F 63% 29.86 in 10.0 mi ESE 10.4 mph - N/A   Clear
6:58 PM 76.8 °F - 59.4 °F 55% 29.87 in 10.0 mi SE 11.5 mph - N/A   Clear
7:58 PM 73.9 °F - 59.0 °F 59% 29.88 in 10.0 mi SSE 8.1 mph - N/A   Clear
8:58 PM 72.1 °F - 59.4 °F 64% 29.87 in 10.0 mi SE 8.1 mph - N/A   Mostly Cloudy
9:58 PM 70.3 °F - 60.4 °F 71% 29.89 in 10.0 mi SSE 8.1 mph - N/A   Clear
10:58 PM 70.0 °F - 62.2 °F 76% 29.89 in 10.0 mi SSE 8.1 mph - N/A   Scattered Clouds
11:58 PM 70.2 °F - 61.7 °F 74% 29.89 in 10.0 mi SSE 9.2 mph - N/A   Overcast